FW9120 Weather Reports


Display with metric or nautical units.
time (UTC)temp
F
wind
direction
speed
MPH
gust
MPH
rain 1hr
in
rain 24hr
in
rain mn
in
humidity
%
barometer
mb
20260507040642 59 345 2.0 2.0 0.00 0.00 0.00 32 816.6
20260507040138 59 344 2.0 2.0 0.00 0.00 0.00 30 816.6
20260507035634 59 321 0.0 0.0 0.00 0.00 0.00 29 816.4
20260507035130 59 321 0.0 0.0 0.00 0.00 0.00 30 816.5
20260507034627 59 321 1.0 2.0 0.00 0.00 0.00 31 816.3
20260507034125 60 316 1.0 2.0 0.00 0.00 0.00 28 816.5
20260507033623 60 267 1.0 1.0 0.00 0.00 0.00 30 816.5
20260507033119 60 4 1.0 1.0 0.00 0.00 0.00 28 816.6
20260507032617 60 354 2.0 2.0 0.00 0.00 0.00 27 816.5
20260507032113 61 335 2.0 2.0 0.00 0.00 0.00 27 816.5
20260507031610 61 319 2.0 2.0 0.00 0.00 0.00 27 816.5
20260507031106 64 351 3.0 3.0 0.00 0.00 0.00 21 816.4
20260507030603 62 11 4.0 5.0 0.00 0.00 0.00 23 816.4
20260507030101 62 1 3.0 3.0 0.00 0.00 0.00 23 816.4
20260507025558 64 292 1.0 1.0 0.00 0.00 0.00 22 816.2
20260507025055 64 342 4.0 6.0 0.00 0.00 0.00 21 816.4
20260507024553 64 327 3.0 3.0 0.00 0.00 0.00 20 816.3
20260507024049 64 290 2.0 2.0 0.00 0.00 0.00 21 816.4
20260507023545 64 293 3.0 3.0 0.00 0.00 0.00 20 816.4
20260507023043 64 301 2.0 2.0 0.00 0.00 0.00 24 816.5
20260507022539 63 328 4.0 6.0 0.00 0.00 0.00 22 816.6
20260507022035 61 7 2.0 2.0 0.00 0.00 0.00 28 816.7
20260507021531 61 334 2.0 2.0 0.00 0.00 0.00 29 816.5
20260507021028 62 4 3.0 3.0 0.00 0.00 0.00 26 816.6
20260507020525 62 342 3.0 5.0 0.00 0.00 0.00 27 816.4
20260507020022 62 321 2.0 2.0 0.00 0.00 0.00 26 816.6
20260507015520 63 322 1.0 1.0 0.00 0.00 0.00 24 816.5
20260507015017 63 328 3.0 3.0 0.00 0.00 0.00 24 816.5
20260507014514 64 314 2.0 2.0 0.00 0.00 0.00 24 816.4
20260507014010 63 335 3.0 3.0 0.00 0.00 0.00 25 816.4
20260507013506 64 326 1.0 1.0 0.00 0.00 0.00 25 816.4
20260507013004 65 321 3.0 3.0 0.00 0.00 0.00 22 816.2
20260507012501 66 6 3.0 3.0 0.00 0.00 0.00 22 816.3
20260507011957 65 47 3.0 3.0 0.00 0.00 0.00 23 816.2
20260507011454 65 15 3.0 3.0 0.00 0.00 0.00 24 816.2
20260507010950 66 354 2.0 2.0 0.00 0.00 0.00 23 816.2
20260507010444 66 28 2.0 3.0 0.00 0.00 0.00 21 816.3
20260507005942 67 39 3.0 3.0 0.00 0.00 0.00 21 816.3
20260507005439 68 19 2.0 2.0 0.00 0.00 0.00 20 816.3
20260507004935 68 354 1.0 1.0 0.00 0.00 0.00 19 816.3
20260507004432 68 48 3.0 3.0 0.00 0.00 0.00 19 816.1
20260507003930 69 18 2.0 3.0 0.00 0.00 0.00 19 816.1
20260507003424 69 66 0.0 1.0 0.00 0.00 0.00 18 816.1
20260507002920 70 350 2.0 2.0 0.00 0.00 0.00 17 815.8
20260507002416 69 62 5.0 7.0 0.00 0.00 0.00 18 816.0
20260507001914 68 45 5.0 7.0 0.00 0.00 0.00 19 816.0
20260507001410 68 333 2.0 2.0 0.00 0.00 0.00 21 815.8
20260507000908 67 100 2.0 2.0 0.00 0.00 0.00 21 815.7
20260507000405 67 80 1.0 3.0 0.00 0.00 0.00 23 815.5
20260506235859 68 117 2.0 2.0 0.00 0.00 0.00 23 815.4
20260506235356 69 63 3.0 3.0 0.00 0.00 0.00 22 815.5
20260506234852 69 16 3.0 3.0 0.00 0.00 0.00 20 815.3
20260506234350 69 12 10.0 13.0 0.00 0.00 0.00 22 815.4
20260506233847 69 96 6.0 7.0 0.00 0.00 0.00 20 815.0
20260506233343 69 326 5.0 8.0 0.00 0.00 0.00 19 815.1
20260506232840 69 2 5.0 7.0 0.00 0.00 0.00 19 815.2
20260506232336 70 10 3.0 3.0 0.00 0.00 0.00 20 815.1
20260506231827 70 46 7.0 9.0 0.00 0.00 0.00 19 814.9
20260506231324 71 129 1.0 2.0 0.00 0.00 0.00 20 815.0
20260506230821 70 6 5.0 7.0 0.00 0.00 0.00 21 814.9
20260506230318 70 26 3.0 5.0 0.00 0.00 0.00 21 814.9
20260506225814 70 55 9.0 15.0 0.00 0.00 0.00 21 814.9
20260506225312 71 31 7.0 9.0 0.00 0.00 0.00 21 814.9
20260506224809 70 37 7.0 9.0 0.00 0.00 0.00 21 814.5
20260506224306 71 334 7.0 13.0 0.00 0.00 0.00 20 814.4
20260506223802 71 25 9.0 13.0 0.00 0.00 0.00 21 814.5
20260506223257 71 2 8.0 10.0 0.00 0.00 0.00 20 814.6
20260506222754 70 349 7.0 9.0 0.00 0.00 0.00 20 814.4
20260506222250 69 12 3.0 3.0 0.00 0.00 0.00 21 814.5
20260506221748 69 51 3.0 3.0 0.00 0.00 0.00 21 814.5
20260506221246 70 16 4.0 5.0 0.00 0.00 0.00 21 814.5
20260506220743 70 32 4.0 5.0 0.00 0.00 0.00 20 814.5
20260506220238 70 13 3.0 3.0 0.00 0.00 0.00 19 814.5
20260506215735 70 25 5.0 7.0 0.00 0.00 0.00 17 814.4
20260506215230 70 343 4.0 5.0 0.00 0.00 0.00 17 814.4
20260506214727 70 20 2.0 2.0 0.00 0.00 0.00 18 814.3
20260506214224 71 19 3.0 3.0 0.00 0.00 0.00 16 814.2
20260506213722 72 23 2.0 2.0 0.00 0.00 0.00 15 814.2
20260506213219 72 0 4.0 5.0 0.00 0.00 0.00 13 814.0
20260506212717 73 19 4.0 5.0 0.00 0.00 0.00 13 814.2
20260506212212 74 344 3.0 3.0 0.00 0.00 0.00 13 814.2
20260506211708 75 1 3.0 3.0 0.00 0.00 0.00 12 814.0
20260506211205 75 326 3.0 3.0 0.00 0.00 0.00 11 814.0
20260506210702 77 3 1.0 1.0 0.00 0.00 0.00 11 813.9
20260506210158 77 290 1.0 1.0 0.00 0.00 0.00 10 814.1
20260506205655 77 280 4.0 6.0 0.00 0.00 0.00 10 814.1
20260506205150 78 300 3.0 3.0 0.00 0.00 0.00 10 814.1
20260506204648 79 337 5.0 6.0 0.00 0.00 0.00 10 814.0
20260506204144 79 318 6.0 7.0 0.00 0.00 0.00 10 814.0
20260506203643 78 291 4.0 5.0 0.00 0.00 0.00 10 814.0
20260506203139 79 281 5.0 6.0 0.00 0.00 0.00 10 814.0
20260506202638 81 236 6.0 7.0 0.00 0.00 0.00 10 814.1
20260506202133 82 251 1.0 1.0 0.00 0.00 0.00 10 814.1
20260506201631 83 221 1.0 1.0 0.00 0.00 0.00 10 814.1
20260506201127 82 253 0.0 0.0 0.00 0.00 0.00 10 813.9
20260506200624 82 286 1.0 1.0 0.00 0.00 0.00 10 814.0
20260506200120 82 266 1.0 1.0 0.00 0.00 0.00 10 814.1
20260506195617 81 223 2.0 2.0 0.00 0.00 0.00 10 814.2
20260506195113 82 207 2.0 2.0 0.00 0.00 0.00 10 814.1
20260506194611 81 215 0.0 1.0 0.00 0.00 0.00 10 814.2
20260506194107 82 234 1.0 1.0 0.00 0.00 0.00 10 814.0
20260506193605 82 211 1.0 1.0 0.00 0.00 0.00 10 814.0
20260506193102 81 201 1.0 2.0 0.00 0.00 0.00 10 814.3
20260506192559 80 147 3.0 3.0 0.00 0.00 0.00 10 814.3
20260506192055 83 228 3.0 5.0 0.00 0.00 0.00 10 814.2
20260506191551 82 266 0.0 0.0 0.00 0.00 0.00 10 814.3
20260506191047 81 243 1.0 2.0 0.00 0.00 0.00 10 814.5
20260506190545 80 259 1.0 1.0 0.00 0.00 0.00 10 814.4
20260506190042 82 285 0.0 0.0 0.00 0.00 0.00 10 814.5
20260506185539 80 254 2.0 2.0 0.00 0.00 0.00 10 814.6
20260506185036 81 262 1.0 1.0 0.00 0.00 0.00 10 814.5
20260506184533 82 189 3.0 6.0 0.00 0.00 0.00 10 814.9
20260506184030 81 118 5.0 6.0 0.00 0.00 0.00 10 814.9
20260506183526 80 253 2.0 2.0 0.00 0.00 0.00 10 815.1
20260506183023 80 140 3.0 5.0 0.00 0.00 0.00 10 815.2
20260506182520 80 209 3.0 3.0 0.00 0.00 0.00 10 815.0
20260506182017 80 143 4.0 6.0 0.00 0.00 0.00 10 815.0
20260506181515 81 281 1.0 1.0 0.00 0.00 0.00 10 815.2
20260506181012 81 182 2.0 2.0 0.00 0.00 0.00 10 815.3
20260506180508 81 177 5.0 6.0 0.00 0.00 0.00 10 815.2
20260506180006 82 173 3.0 5.0 0.00 0.00 0.00 10 815.4
20260506175501 82 191 1.0 1.0 0.00 0.00 0.00 10 815.6
20260506174958 80 280 1.0 2.0 0.00 0.00 0.00 10 815.5
20260506174457 79 188 2.0 3.0 0.00 0.00 0.00 10 815.7
20260506173952 79 90 3.0 3.0 0.00 0.00 0.00 10 816.0
20260506173450 81 143 3.0 3.0 0.00 0.00 0.00 10 816.2
20260506172946 80 211 2.0 2.0 0.00 0.00 0.00 10 816.2
20260506172443 78 108 3.0 5.0 0.00 0.00 0.00 10 816.4
20260506171934 81 321 1.0 2.0 0.00 0.00 0.00 10 816.4
20260506171432 77 238 3.0 3.0 0.00 0.00 0.00 10 816.2
20260506170930 76 222 2.0 2.0 0.00 0.00 0.00 10 816.5
20260506170426 78 70 5.0 7.0 0.00 0.00 0.00 10 816.5
20260506165924 77 219 3.0 3.0 0.00 0.00 0.00 10 816.6
20260506165422 77 56 3.0 3.0 0.00 0.00 0.00 12 816.8
20260506164918 77 268 0.0 1.0 0.00 0.00 0.00 10 816.9
20260506164415 77 169 3.0 3.0 0.00 0.00 0.00 12 817.0
20260506163913 75 289 1.0 1.0 0.00 0.00 0.00 11 817.0
20260506163407 76 49 3.0 3.0 0.00 0.00 0.00 12 817.3
20260506162903 78 162 3.0 3.0 0.00 0.00 0.00 12 817.4
20260506162401 76 43 3.0 5.0 0.00 0.00 0.00 16 817.4
20260506161858 76 228 1.0 2.0 0.00 0.00 0.00 14 817.7
20260506161355 75 126 1.0 1.0 0.00 0.00 0.00 14 817.5
20260506160853 76 72 3.0 3.0 0.00 0.00 0.00 13 817.7
20260506160350 74 38 1.0 2.0 0.00 0.00 0.00 13 817.8
20260506155848 74 131 3.0 3.0 0.00 0.00 0.00 17 818.1
20260506155344 75 165 1.0 1.0 0.00 0.00 0.00 14 818.2
20260506153502 73 53 2.0 2.0 0.00 0.00 0.00 13 818.5
20260506152959 71 127 1.0 1.0 0.00 0.00 0.00 23 818.7
20260506152456 71 186 4.0 5.0 0.00 0.00 0.00 20 818.8
20260506151954 71 245 1.0 1.0 0.00 0.00 0.00 22 818.7
20260506151452 70 255 1.0 1.0 0.00 0.00 0.00 24 819.1
20260506150949 69 194 4.0 5.0 0.00 0.00 0.00 24 819.2
20260506150445 69 241 0.0 1.0 0.00 0.00 0.00 24 819.3
20260506145942 69 305 0.0 0.0 0.00 0.00 0.00 24 819.4
20260506145438 69 231 2.0 2.0 0.00 0.00 0.00 27 819.4
20260506144936 69 218 3.0 3.0 0.00 0.00 0.00 26 819.3
20260506144432 70 189 4.0 5.0 0.00 0.00 0.00 25 819.4
20260506143931 70 108 2.0 2.0 0.00 0.00 0.00 23 819.5
20260506143427 68 112 1.0 1.0 0.00 0.00 0.00 21 819.8
20260506142926 68 126 3.0 3.0 0.00 0.00 0.00 23 819.9
20260506142423 67 220 1.0 1.0 0.00 0.00 0.00 24 819.8
20260506141921 67 198 2.0 2.0 0.00 0.00 0.00 25 819.9
20260506141419 70 216 1.0 2.0 0.00 0.00 0.00 22 820.0
20260506140917 69 101 1.0 2.0 0.00 0.00 0.00 22 820.0
20260506140414 68 300 1.0 1.0 0.00 0.00 0.00 22 819.9
20260506135911 68 177 1.0 1.0 0.00 0.00 0.00 23 820.1
20260506135408 65 229 1.0 1.0 0.00 0.00 0.00 27 820.0
20260506134904 66 227 0.0 1.0 0.00 0.00 0.00 25 820.3
20260506134400 64 163 2.0 2.0 0.00 0.00 0.00 26 820.0
20260506133857 65 195 2.0 2.0 0.00 0.00 0.00 27 820.1
20260506133354 67 123 3.0 3.0 0.00 0.00 0.00 25 820.1
20260506132850 65 2 2.0 2.0 0.00 0.00 0.00 25 820.0
20260506132348 63 151 0.0 1.0 0.00 0.00 0.00 29 820.0
20260506131846 63 179 2.0 2.0 0.00 0.00 0.00 30 820.2
20260506131342 65 165 2.0 2.0 0.00 0.00 0.00 29 820.1
20260506130839 65 255 0.0 0.0 0.00 0.00 0.00 27 820.3
20260506130335 64 287 0.0 0.0 0.00 0.00 0.00 28 820.1
20260506125833 61 246 0.0 0.0 0.00 0.00 0.00 31 820.0
20260506125331 60 246 1.0 1.0 0.00 0.00 0.00 33 820.2
20260506124830 60 220 1.0 2.0 0.00 0.00 0.00 34 820.1
20260506124326 60 237 1.0 1.0 0.00 0.00 0.00 36 820.1
20260506123824 60 256 1.0 2.0 0.00 0.00 0.00 33 820.0
20260506123322 60 267 0.0 1.0 0.00 0.00 0.00 34 819.8
20260506122819 62 316 0.0 0.0 0.00 0.00 0.00 31 819.9
20260506122316 59 325 0.0 1.0 0.00 0.00 0.00 31 819.8
20260506121814 59 325 0.0 1.0 0.00 0.00 0.00 32 819.8
20260506121311 59 326 1.0 1.0 0.00 0.00 0.00 31 820.0
20260506120808 57 326 2.0 2.0 0.00 0.00 0.00 34 819.9
20260506120306 58 326 0.0 0.0 0.00 0.00 0.00 35 820.1
20260506115803 59 327 0.0 1.0 0.00 0.00 0.00 34 820.2
20260506115306 57 327 1.0 1.0 0.00 0.00 0.00 36 820.3
20260506114759 55 327 1.0 1.0 0.00 0.00 0.00 38 820.1
20260506114256 57 50 2.0 2.0 0.00 0.00 0.00 37 820.3
20260506113755 57 62 1.0 1.0 0.00 0.00 0.00 33 820.0
20260506113252 54 72 2.0 3.0 0.00 0.00 0.00 34 820.0
20260506112748 53 27 2.0 2.0 0.00 0.00 0.00 36 820.0
20260506112245 53 10 2.0 2.0 0.00 0.00 0.00 34 820.1
20260506111743 53 32 2.0 2.0 0.00 0.00 0.00 36 820.1
20260506111241 53 20 2.0 2.0 0.00 0.00 0.00 35 819.9
20260506110737 53 11 2.0 2.0 0.00 0.00 0.00 34 819.9
20260506110235 52 25 2.0 2.0 0.00 0.00 0.00 34 819.9
20260506105731 52 349 2.0 2.0 0.00 0.00 0.00 38 819.8
20260506105229 52 350 3.0 3.0 0.00 0.00 0.00 39 819.7
20260506104727 54 345 2.0 2.0 0.00 0.00 0.00 34 819.5
20260506104224 52 353 2.0 2.0 0.00 0.00 0.00 42 819.8
20260506103721 53 354 3.0 3.0 0.00 0.00 0.00 38 819.5
20260506103218 53 354 1.0 2.0 0.00 0.00 0.00 37 819.3
20260506102716 50 356 3.0 3.0 0.00 0.00 0.00 41 819.3
20260506102214 51 356 1.0 1.0 0.00 0.00 0.00 39 819.4
20260506101710 52 356 2.0 2.0 0.00 0.00 0.00 40 819.3
20260506101207 52 356 2.0 2.0 0.00 0.00 0.00 40 819.4
20260506100705 51 356 0.0 0.0 0.00 0.00 0.00 39 819.2
20260506100203 54 356 1.0 2.0 0.00 0.00 0.00 39 819.1
20260506095701 53 356 1.0 1.0 0.00 0.00 0.00 36 818.9
20260506095157 54 356 1.0 1.0 0.00 0.00 0.00 35 819.0
20260506094655 54 356 1.0 1.0 0.00 0.00 0.00 36 818.9
20260506094152 54 355 0.0 0.0 0.00 0.00 0.00 35 818.8
20260506093651 53 355 1.0 1.0 0.00 0.00 0.00 36 818.9
20260506093148 52 356 1.0 1.0 0.00 0.00 0.00 40 818.8
20260506092645 52 356 2.0 2.0 0.00 0.00 0.00 41 818.8
20260506092142 53 356 1.0 1.0 0.00 0.00 0.00 40 818.7
20260506091640 53 356 2.0 2.0 0.00 0.00 0.00 38 818.8
20260506091137 53 356 2.0 2.0 0.00 0.00 0.00 38 818.8
20260506090636 53 356 2.0 2.0 0.00 0.00 0.00 37 818.6
20260506090131 53 357 2.0 2.0 0.00 0.00 0.00 39 818.6
20260506085629 53 358 2.0 2.0 0.00 0.00 0.00 39 818.7
20260506085125 53 358 2.0 2.0 0.00 0.00 0.00 40 818.5
20260506084621 53 358 2.0 2.0 0.00 0.00 0.00 38 818.5
20260506084118 53 358 2.0 2.0 0.00 0.00 0.00 38 818.6
20260506083615 52 2 1.0 1.0 0.00 0.00 0.00 41 818.5
20260506083113 53 3 1.0 2.0 0.00 0.00 0.00 39 818.5
20260506082609 54 3 1.0 2.0 0.00 0.00 0.00 37 818.6
20260506082105 54 358 2.0 2.0 0.00 0.00 0.00 37 818.6
20260506081603 56 23 2.0 2.0 0.00 0.00 0.00 34 818.5
20260506081101 55 30 1.0 2.0 0.00 0.00 0.00 32 818.3
20260506080558 55 5 1.0 2.0 0.00 0.00 0.00 34 818.5
20260506073038 55 9 2.0 2.0 0.00 0.00 0.00 36 818.6
20260506072536 56 7 2.0 2.0 0.00 0.00 0.00 34 818.5
20260506072033 56 352 2.0 2.0 0.00 0.00 0.00 34 818.2
20260506071531 57 349 3.0 3.0 0.00 0.00 0.00 32 818.3
20260506071028 55 348 3.0 3.0 0.00 0.00 0.00 33 818.5
20260506070525 55 348 2.0 2.0 0.00 0.00 0.00 36 818.1
20260506062503 56 345 2.0 2.0 0.00 0.00 0.00 36 817.8
20260506061959 57 341 1.0 2.0 0.00 0.00 0.00 34 818.1
20260506061455 57 341 1.0 1.0 0.00 0.00 0.00 31 818.0
20260506060953 56 342 3.0 3.0 0.00 0.00 0.00 33 818.0
20260506060451 58 2 0.0 0.0 0.00 0.00 0.00 31 818.0
20260506050920 61 351 1.0 2.0 0.00 0.00 0.00 25 818.1
20260506050418 60 299 2.0 2.0 0.00 0.00 0.00 28 818.1
20260506044908 62 263 2.0 2.0 0.00 0.00 0.00 23 817.9
20260506044406 60 351 3.0 3.0 0.00 0.00 0.00 28 818.1
20260506043903 61 311 2.0 2.0 0.00 0.00 0.00 28 818.0
20260506043400 60 308 1.0 1.0 0.00 0.00 0.00 26 818.0
20260506042858 60 313 2.0 2.0 0.00 0.00 0.00 32 818.1
20260506042357 62 313 1.0 1.0 0.00 0.00 0.00 27 818.1
20260506041855 62 313 1.0 1.0 0.00 0.00 0.00 27 818.0
20260506041354 63 313 1.0 1.0 0.00 0.00 0.00 26 817.9
20260506040849 61 314 0.0 0.0 0.00 0.00 0.00 28 818.2